Date String (YYYY-MM-DD hh:mm:ss) UTC,Instrument flags,absolute air pressure of the measurement (hPa),sample flow rate (lpm),inlet stack bypass flow (lpm),air temperature of the measurement (°C),ambient temperature measured by the external sensor (°C),aerosol sample conditioner tube jacket temperature (°C),OPC LED temperature (°C),internal box temperature (°C),relative humidity of the measurement (%),span deviation,mass concentration of particles derived from Lorenz-Mie calculation of OPC scattering (μg/m³),mass concentration of particles derived from Lorenz-Mie calculation of OPC scattering (μg/m³),mass concentration of particles derived from Lorenz-Mie calculation of OPC scattering (μg/m³)
DateTimeUTC,F1_M11,P_M11,Q1_M11,Q2_M11,T1_M11,T2_M11,T3_M11,T4_M11,T5_M11,U1_M11,ZSPAN_M11,X0_M11,X2_M11,X1_M11
2024-05-31 22:00:00,SystemResetWarning,0829.4,5.00,000.00,031.6,030.9,000.0,039.9,033.2,023.9,0000.1,0016.85,0007.18,0006.29
2024-05-31 22:01:00,SystemResetWarning,0829.4,5.00,000.00,031.6,030.9,000.0,039.9,033.2,023.5,0000.2,0017.27,0007.24,0006.29
2024-05-31 22:02:00,SystemResetWarning,0829.4,5.00,000.00,031.6,030.9,000.0,040.0,033.3,023.4,0000.5,0018.85,0007.29,0006.31
2024-05-31 22:03:00,SystemResetWarning,0829.4,4.99,000.00,031.6,030.9,000.0,040.0,033.3,023.6,0000.8,0019.32,0007.30,0006.32
2024-05-31 22:04:00,SystemResetWarning,0829.4,4.99,000.00,031.6,030.9,000.0,040.0,033.3,023.4,0000.6,0018.23,0007.32,0006.34
2024-05-31 22:05:00,SystemResetWarning,0829.4,5.01,000.00,031.6,030.9,000.0,040.0,033.3,023.7,0001.0,0018.02,0007.33,0006.34
2024-05-31 22:06:00,SystemResetWarning,0829.3,5.01,000.00,031.6,031.0,000.0,040.0,033.3,023.3,0001.6,0018.29,0007.29,0006.32
2024-05-31 22:07:00,SystemResetWarning,0829.4,5.00,000.00,031.6,031.0,000.0,040.0,033.3,023.2,0002.1,0018.31,0007.22,0006.27
2024-05-31 22:08:00,SystemResetWarning,0829.4,4.99,000.00,031.6,031.0,000.0,040.0,033.3,023.2,0002.0,0019.30,0007.21,0006.25
2024-05-31 22:09:00,SystemResetWarning,0829.3,5.00,000.00,031.7,031.0,000.0,040.0,033.3,022.7,0001.7,0019.56,0007.19,0006.25
2024-05-31 22:10:00,SystemResetWarning,0829.4,5.01,000.00,031.7,031.0,000.0,040.1,033.3,023.1,0001.6,0020.04,0007.14,0006.24
2024-05-31 22:11:00,SystemResetWarning,0829.4,5.01,000.00,031.7,031.0,000.0,040.1,033.4,022.8,0001.9,0019.54,0007.06,0006.19
2024-05-31 22:12:00,SystemResetWarning,0829.4,5.00,000.00,031.7,031.0,000.0,040.1,033.4,023.0,0002.1,0019.46,0007.04,0006.16
2024-05-31 22:13:00,SystemResetWarning,0829.4,4.98,000.00,031.7,031.0,000.0,040.1,033.4,023.2,0002.1,0017.36,0006.94,0006.10
2024-05-31 22:14:00,SystemResetWarning,0829.4,5.00,000.00,031.7,031.1,000.0,040.1,033.4,023.4,0001.8,0016.76,0006.87,0006.05
2024-05-31 22:15:00,SystemResetWarning,0829.4,5.00,000.00,031.7,031.1,000.0,040.1,033.5,023.6,0001.7,0016.65,0006.80,0006.01
2024-05-31 22:16:00,SystemResetWarning,0829.3,5.01,000.00,031.8,031.1,000.0,040.1,033.5,023.7,0001.5,0016.29,0006.77,0005.99
2024-05-31 22:17:00,SystemResetWarning,0829.3,5.00,000.00,031.8,031.1,000.0,040.1,033.5,023.0,0001.5,0015.73,0006.73,0005.97
2024-05-31 22:18:00,SystemResetWarning,0829.3,5.00,000.00,031.8,031.1,000.0,040.1,033.5,023.1,0001.5,0014.84,0006.72,0005.95
2024-05-31 22:19:00,SystemResetWarning,0829.4,5.00,000.00,031.8,031.1,000.0,040.2,033.5,023.0,0001.3,0014.22,0006.72,0005.93
2024-05-31 22:20:00,SystemResetWarning,0829.4,5.00,000.00,031.8,031.2,000.0,040.2,033.5,023.0,0001.0,0013.46,0006.76,0005.97
2024-05-31 22:21:00,SystemResetWarning,0829.5,5.00,000.00,031.8,031.2,000.0,040.2,033.5,023.0,0000.5,0013.08,0006.81,0005.99
2024-05-31 22:22:00,SystemResetWarning,0829.6,4.99,000.00,031.8,031.2,000.0,040.2,033.5,023.2,0001.8,0014.60,0006.90,0006.05
2024-05-31 22:23:00,SystemResetWarning,0829.6,5.00,000.00,031.9,031.2,000.0,040.2,033.5,022.7,0001.8,0015.02,0006.93,0006.07
2024-05-31 22:24:00,SystemResetWarning,0829.6,5.00,000.00,031.8,030.8,000.0,040.3,033.3,022.9,0001.8,0015.46,0006.95,0006.10
2024-05-31 22:25:00,SystemResetWarning,0829.4,5.00,000.00,031.5,028.3,000.0,040.3,032.1,022.5,0001.8,0015.31,0006.95,0006.12
2024-05-31 22:26:00,SystemResetWarning,0829.4,5.00,000.00,031.0,026.7,000.0,040.2,031.1,023.1,0001.8,0015.72,0006.98,0006.16
2024-05-31 22:27:00,SystemResetWarning,0829.4,5.01,000.00,030.7,026.9,000.0,040.1,031.1,024.0,0002.0,0015.97,0006.98,0006.20
2024-05-31 22:28:00,SystemResetWarning,0829.4,5.00,000.00,030.6,027.4,000.0,039.8,031.4,024.4,0002.2,0016.10,0007.03,0006.25
2024-05-31 22:29:00,SystemResetWarning,0829.5,5.00,000.00,030.6,027.9,000.0,039.7,031.7,025.2,0002.1,0016.30,0007.12,0006.30
2024-05-31 22:30:00,SystemResetWarning,0829.6,5.00,000.00,030.6,028.3,000.0,039.6,032.0,025.1,0001.8,0016.35,0007.13,0006.34
2024-05-31 22:31:00,SystemResetWarning,0829.6,4.99,000.00,030.6,028.7,000.0,039.5,032.1,025.2,0001.9,0016.19,0007.15,0006.36
2024-05-31 22:32:00,SystemResetWarning,0829.6,5.00,000.00,030.6,029.0,000.0,039.5,032.2,025.1,0001.7,0015.64,0007.18,0006.38
2024-05-31 22:33:00,SystemResetWarning,0829.6,5.00,000.00,030.7,029.3,000.0,039.4,032.3,025.1,0001.2,0014.21,0007.14,0006.40
2024-05-31 22:34:00,SystemResetWarning,0829.6,5.01,000.00,030.7,029.5,000.0,039.4,032.4,025.1,0001.1,0013.67,0007.15,0006.44
2024-05-31 22:35:00,SystemResetWarning,0829.6,5.01,000.00,030.7,029.7,000.0,039.4,032.5,024.8,0001.0,0013.80,0007.14,0006.46
2024-05-31 22:36:00,SystemResetWarning,0829.6,4.99,000.00,030.8,029.8,000.0,039.4,032.5,024.6,0000.7,0013.83,0007.17,0006.45
2024-05-31 22:37:00,SystemResetWarning,0829.6,4.99,000.00,030.8,030.0,000.0,039.4,032.6,024.5,0000.7,0013.99,0007.19,0006.44
2024-05-31 22:38:00,SystemResetWarning,0829.6,5.00,000.00,030.9,030.1,000.0,039.3,032.6,024.3,0000.8,0014.89,0007.26,0006.40
2024-05-31 22:39:00,SystemResetWarning,0829.5,5.00,000.00,030.9,030.2,000.0,039.4,032.7,024.3,0001.0,0014.99,0007.27,0006.36
2024-05-31 22:40:00,SystemResetWarning,0829.5,5.00,000.00,031.0,030.2,000.0,039.4,032.7,024.7,0001.1,0014.98,0007.26,0006.32
2024-05-31 22:41:00,SystemResetWarning,0829.5,5.01,000.00,031.0,030.3,000.0,039.4,032.8,024.8,0001.4,0014.14,0007.23,0006.29
2024-05-31 22:42:00,SystemResetWarning,0829.5,5.00,000.00,031.0,030.4,000.0,039.4,032.8,024.6,0001.2,0014.75,0007.20,0006.25
2024-05-31 22:43:00,SystemResetWarning,0829.6,5.00,000.00,031.1,030.4,000.0,039.4,032.9,024.9,0000.9,0014.97,0007.16,0006.19
2024-05-31 22:44:00,SystemResetWarning,0829.6,4.98,000.00,031.1,030.5,000.0,039.4,032.9,025.0,0001.2,0015.27,0007.15,0006.14
2024-05-31 22:45:00,SystemResetWarning,0829.5,5.00,000.00,031.1,030.5,000.0,039.5,033.0,025.2,0000.8,0016.77,0007.12,0006.12
2024-05-31 22:46:00,SystemResetWarning,0829.5,5.01,000.00,031.2,030.6,000.0,039.5,033.0,025.4,0000.8,0017.07,0007.16,0006.15
2024-05-31 22:47:00,SystemResetWarning,0829.4,5.01,000.00,031.2,030.6,000.0,039.5,033.0,025.0,0001.3,0017.10,0007.22,0006.21
2024-05-31 22:48:00,SystemResetWarning,0829.5,5.00,000.00,031.3,030.7,000.0,039.5,033.0,024.8,0002.0,0016.60,0007.30,0006.29
2024-05-31 22:49:00,SystemResetWarning,0829.6,5.00,000.00,031.3,030.7,000.0,039.5,033.1,024.6,0002.0,0015.38,0007.33,0006.38
2024-05-31 22:50:00,SystemResetWarning,0829.6,5.00,000.00,031.3,030.7,000.0,039.6,033.1,024.5,0002.0,0015.34,0007.41,0006.49
2024-05-31 22:51:00,SystemResetWarning,0829.6,5.00,000.00,031.3,030.7,000.0,039.6,033.1,024.8,0001.9,0015.51,0007.49,0006.59
2024-05-31 22:52:00,SystemResetWarning,0829.7,4.99,000.00,031.4,030.8,000.0,039.6,033.1,024.7,0001.1,0015.45,0007.54,0006.65
2024-05-31 22:53:00,SystemResetWarning,0829.7,5.00,000.00,031.4,030.6,000.0,039.7,033.0,024.6,0001.8,0014.72,0007.58,0006.70
2024-05-31 22:54:00,SystemResetWarning,0829.5,5.00,000.00,031.1,028.6,000.0,039.7,032.0,025.1,0001.9,0015.13,0007.64,0006.76
2024-05-31 22:55:00,SystemResetWarning,0829.4,5.01,000.00,030.7,027.3,000.0,039.7,031.3,025.4,0002.0,0016.11,0007.64,0006.81
2024-05-31 22:56:00,SystemResetWarning,0829.5,5.01,000.00,030.5,027.5,000.0,039.6,031.3,025.8,0001.5,0015.46,0007.72,0006.86
2024-05-31 22:57:00,SystemResetWarning,0829.4,4.99,000.00,030.4,027.9,000.0,039.4,031.6,025.8,0001.3,0014.43,0007.77,0006.88
2024-05-31 22:58:00,SystemResetWarning,0829.4,4.99,000.00,030.4,028.2,000.0,039.3,031.8,026.0,0001.7,0015.11,0007.75,0006.87
2024-05-31 22:59:00,SystemResetWarning,0829.4,5.00,000.00,030.5,028.6,000.0,039.3,032.0,026.3,0002.1,0015.98,0007.74,0006.86
